Pinedale, WY

6:42 AM MDT on May 28, 2017 (GMT -0600)
Wenz

Weather History for KPNA - November, 2012

Change the Weather History Date:

Sunday, November 4, 2012

  Actual Average (KBPI) Record (KBPI)
Temperature  
Mean Temperature 38 °F -  
Max Temperature 53 °F 40 °F 67 °F (1978)
Min Temperature 23 °F 12 °F -2 °F (1994)
Degree Days  
Heating Degree Days 27    
Moisture  
Dew Point 26 °F    
Average Humidity 70    
Maximum Humidity 100    
Minimum Humidity 35    
Precipitation  
Precipitation 0.00 in - - ()
Sea Level Pressure  
Sea Level Pressure 30.36 in    
Wind  
Wind Speed 8 mph (WNW)    
Max Wind Speed 21 mph    
Max Gust Speed 28 mph    
Visibility 10 miles    
Events      
Averages and records for this station are not official NWS values.
T = Trace of Precipitation, MM = Missing Value Source: NWS Daily Summary

Daily Weather History Graph

Daily Weather History Graph

Search for Another Location

Airport or City:

Trip Planner

Search our weather history database for the weather conditions in past years. The results will help you decide how hot, cold, wet, or windy it might be!

Date:

Astronomy

Nov. 04, 2012 Rise Set
Actual Time 6:57 AM MST 5:07 PM MST
Civil Twilight 6:28 AM MST 5:36 PM MST
Nautical Twilight 5:54 AM MST 6:10 PM MST
Astronomical Twilight 5:21 AM MST 6:43 PM MST
Moon 9:47 PM MST (11/4) 11:45 AM MST (11/4)
Length of Visible Light 11h 08m
Length of Day
10h 09m
Waning Gibbous, 71% of the Moon is Illuminated
Nov 4
Waning Gibbous
Nov 6
Last Quarter
Nov 13
New
Nov 20
First Quarter
Nov 28
Full

Hourly Weather History & Observations

Time (MST) Temp. Windchill Dew Point Humidity Pressure Visibility Wind Dir Wind Speed Gust Speed Precip Events Conditions
12:15 AM 32.0 °F 24.8 °F 23.0 °F 69% 30.30 in 10.0 mi WNW 8.1 mph - N/A   Clear
12:35 AM 32.0 °F 24.2 °F 23.0 °F 69% 30.30 in 10.0 mi NW 9.2 mph - N/A   Clear
12:55 AM 32.0 °F 23.6 °F 23.0 °F 69% 30.31 in 10.0 mi NW 10.4 mph - N/A   Clear
1:15 AM 32.0 °F 23.6 °F 23.0 °F 69% 30.31 in 10.0 mi NW 10.4 mph - N/A   Scattered Clouds
1:35 AM 30.2 °F 23.4 °F 23.0 °F 75% 30.31 in 10.0 mi WNW 6.9 mph - N/A   Scattered Clouds
1:55 AM 28.4 °F 21.2 °F 23.0 °F 80% 30.31 in 10.0 mi NW 6.9 mph - N/A   Scattered Clouds
1:15 AM 28.4 °F 21.2 °F 23.0 °F 80% 30.31 in 10.0 mi NW 6.9 mph - N/A   Scattered Clouds
1:35 AM 28.4 °F 23.3 °F 23.0 °F 80% 30.31 in 10.0 mi WNW 4.6 mph - N/A   Scattered Clouds
1:55 AM 28.4 °F 22.2 °F 23.0 °F 80% 30.32 in 10.0 mi West 5.8 mph - N/A   Clear
2:15 AM 28.4 °F 23.3 °F 23.0 °F 80% 30.31 in 10.0 mi West 4.6 mph - N/A   Scattered Clouds
2:35 AM 28.4 °F 22.2 °F 23.0 °F 80% 30.31 in 10.0 mi WNW 5.8 mph - N/A   Scattered Clouds
2:55 AM 28.4 °F 24.6 °F 23.0 °F 80% 30.31 in 10.0 mi West 3.5 mph - N/A   Clear
3:15 AM 26.6 °F - 23.0 °F 86% 30.32 in 10.0 mi Calm Calm - N/A   Clear
3:35 AM 26.6 °F 21.2 °F 23.0 °F 86% 30.32 in 10.0 mi West 4.6 mph - N/A   Mostly Cloudy
3:55 AM 28.4 °F 22.2 °F 23.0 °F 80% 30.32 in 10.0 mi NW 5.8 mph - N/A   Overcast
4:15 AM 26.6 °F - 23.0 °F 86% 30.33 in 10.0 mi Calm Calm - N/A   Overcast
4:35 AM 26.6 °F 22.6 °F 23.0 °F 86% 30.33 in 10.0 mi WNW 3.5 mph - N/A   Scattered Clouds
4:55 AM 26.6 °F 20.0 °F 23.0 °F 86% 30.33 in 10.0 mi WNW 5.8 mph - N/A   Clear
5:15 AM 24.8 °F 16.9 °F 23.0 °F 93% 30.33 in 10.0 mi West 6.9 mph - N/A   Clear
5:35 AM 24.8 °F 16.9 °F 23.0 °F 93% 30.33 in 10.0 mi West 6.9 mph - N/A   Scattered Clouds
5:55 AM 24.8 °F 17.9 °F 23.0 °F 93% 30.33 in 10.0 mi WNW 5.8 mph - N/A   Scattered Clouds
6:15 AM 23.0 °F 15.8 °F 21.2 °F 93% 30.33 in 10.0 mi WNW 5.8 mph - N/A   Scattered Clouds
6:35 AM 23.0 °F - 23.0 °F 100% 30.33 in 10.0 mi Calm Calm - N/A   Scattered Clouds
6:55 AM 23.0 °F - 21.2 °F 93% 30.34 in 10.0 mi Calm Calm - N/A   Scattered Clouds
7:15 AM 24.8 °F 20.5 °F 23.0 °F 93% 30.34 in 10.0 mi West 3.5 mph - N/A   Mostly Cloudy
7:35 AM 24.8 °F 19.1 °F 23.0 °F 93% 30.35 in 10.0 mi West 4.6 mph - N/A   Scattered Clouds
7:55 AM 26.6 °F 20.0 °F 24.8 °F 93% 30.36 in 10.0 mi West 5.8 mph - N/A   Clear
8:15 AM 30.2 °F 26.7 °F 26.6 °F 86% 30.36 in 10.0 mi West 3.5 mph - N/A   Clear
8:35 AM 32.0 °F 28.7 °F 26.6 °F 80% 30.36 in 10.0 mi West 3.5 mph - N/A   Clear
8:55 AM 32.0 °F - 26.6 °F 80% 30.37 in 10.0 mi Calm Calm - N/A   Clear
9:15 AM 37.4 °F - 28.4 °F 70% 30.37 in 10.0 mi Calm Calm - N/A   Clear
9:35 AM 41.0 °F 38.0 °F 30.2 °F 65% 30.37 in 10.0 mi WNW 4.6 mph - N/A   Scattered Clouds
9:55 AM 42.8 °F 39.3 °F 30.2 °F 61% 30.38 in 10.0 mi WNW 5.8 mph - N/A   Clear
10:15 AM 44.6 °F 40.7 °F 30.2 °F 57% 30.37 in 10.0 mi NNW 6.9 mph - N/A   Clear
10:35 AM 44.6 °F 40.2 °F 30.2 °F 57% 30.37 in 10.0 mi NW 8.1 mph - N/A   Clear
10:55 AM 46.4 °F 41.5 °F 30.2 °F 53% 30.37 in 10.0 mi West 10.4 mph - N/A   Clear
11:15 AM 46.4 °F 42.9 °F 28.4 °F 50% 30.37 in 10.0 mi WNW 6.9 mph 16.1 mph N/A   Clear
11:35 AM 48.2 °F - 28.4 °F 46% 30.37 in 10.0 mi WNW 17.3 mph - N/A   Clear
11:55 AM 50.0 °F - 28.4 °F 43% 30.37 in 10.0 mi WNW 13.8 mph 21.9 mph N/A   Clear
12:15 PM 51.8 °F - 26.6 °F 38% 30.36 in 10.0 mi WNW 19.6 mph 25.3 mph N/A   Clear
12:35 PM 51.8 °F - 26.6 °F 38% 30.36 in 10.0 mi NW 17.3 mph 27.6 mph N/A   Clear
12:55 PM 51.8 °F - 26.6 °F 38% 30.36 in 10.0 mi WNW 17.3 mph 23.0 mph N/A   Clear
1:15 PM 51.8 °F - 26.6 °F 38% 30.35 in 10.0 mi WNW 17.3 mph 21.9 mph N/A   Clear
1:35 PM 51.8 °F - 26.6 °F 38% 30.35 in 10.0 mi WNW 15.0 mph - N/A   Clear
1:55 PM 53.6 °F - 26.6 °F 35% 30.35 in 10.0 mi WNW 16.1 mph 20.7 mph N/A   Clear
2:15 PM 53.6 °F - 28.4 °F 38% 30.36 in 10.0 mi WNW 12.7 mph 20.7 mph N/A   Mostly Cloudy
2:35 PM 53.6 °F - 28.4 °F 38% 30.36 in 10.0 mi WNW 18.4 mph 23.0 mph N/A   Scattered Clouds
2:55 PM 51.8 °F - 28.4 °F 41% 30.37 in 10.0 mi WNW 18.4 mph 23.0 mph N/A   Scattered Clouds
3:15 PM 51.8 °F - 28.4 °F 41% 30.37 in 10.0 mi WNW 20.7 mph 24.2 mph N/A   Clear
3:35 PM 51.8 °F - 28.4 °F 41% 30.37 in 10.0 mi WNW 20.7 mph 26.5 mph N/A   Clear
3:55 PM 51.8 °F - 28.4 °F 41% 30.38 in 10.0 mi WNW 20.7 mph 24.2 mph N/A   Clear
4:15 PM 50.0 °F - 28.4 °F 43% 30.37 in 10.0 mi WNW 20.7 mph - N/A   Clear
4:35 PM 48.2 °F - 28.4 °F 46% 30.38 in 10.0 mi West 13.8 mph 24.2 mph N/A   Clear
4:55 PM 46.4 °F 40.7 °F 30.2 °F 53% 30.39 in 10.0 mi West 12.7 mph 20.7 mph N/A   Clear
5:15 PM 42.8 °F 37.0 °F 30.2 °F 61% 30.39 in 10.0 mi West 10.4 mph - N/A   Clear
5:55 PM 41.0 °F 35.2 °F 30.2 °F 65% 30.40 in 10.0 mi NW 9.2 mph - N/A   Clear
6:15 PM 37.4 °F 30.8 °F 28.4 °F 70% 30.41 in 10.0 mi WNW 9.2 mph - N/A   Clear
6:35 PM 37.4 °F 29.8 °F 28.4 °F 70% 30.42 in 10.0 mi NW 11.5 mph - N/A   Scattered Clouds
6:55 PM 37.4 °F 30.3 °F 28.4 °F 70% 30.42 in 10.0 mi WNW 10.4 mph - N/A   Mostly Cloudy
7:15 PM 35.6 °F 30.7 °F 28.4 °F 75% 30.43 in 10.0 mi WNW 5.8 mph - N/A   Mostly Cloudy
7:35 PM 32.0 °F 25.6 °F 26.6 °F 80% 30.43 in 10.0 mi NW 6.9 mph - N/A   Scattered Clouds
7:55 PM 32.0 °F 23.0 °F 28.4 °F 87% 30.43 in 10.0 mi NW 11.5 mph - N/A   Clear
8:15 PM 33.8 °F 24.8 °F 28.4 °F 81% 30.43 in 10.0 mi WNW 12.7 mph - N/A   Scattered Clouds
8:35 PM 32.0 °F 23.0 °F 28.4 °F 87% 30.43 in 10.0 mi WNW 11.5 mph - N/A   Mostly Cloudy
8:55 PM 32.0 °F 22.1 °F 28.4 °F 87% 30.43 in 10.0 mi WNW 13.8 mph - N/A   Mostly Cloudy
9:15 PM 32.0 °F 23.0 °F 28.4 °F 87% 30.43 in 10.0 mi West 11.5 mph - N/A   Mostly Cloudy
9:35 PM 32.0 °F 23.0 °F 28.4 °F 87% 30.43 in 10.0 mi West 11.5 mph - N/A   Overcast
9:55 PM 32.0 °F 22.1 °F 28.4 °F 87% 30.43 in 10.0 mi WNW 13.8 mph - N/A   Mostly Cloudy
10:15 PM 32.0 °F 22.1 °F 28.4 °F 87% 30.43 in 10.0 mi NW 13.8 mph - N/A   Mostly Cloudy
10:35 PM 32.0 °F 20.5 °F 28.4 °F 87% 30.43 in 10.0 mi NW 18.4 mph - N/A   Mostly Cloudy
10:55 PM 32.0 °F 22.1 °F 28.4 °F 87% 30.43 in 10.0 mi NW 13.8 mph - N/A   Mostly Cloudy